Location: Buchberg
(46.9333°N, 15.8500°E)
Time: 09:40:50
(UTC+00:00)

Cosmos 1933 Rocket - Pass Details

Date: 14 July 2020
Orbit: 607 x 629 km, 82.5° (Epoch: 07 August)

Event Time Altitude Azimuth Distance (km) Brightness Sun altitude
Exits shadow 00:23:24 41° 228° (SW) 882 3.9 -19.0°
Maximum altitude 00:24:36 57° 282° (WNW) 719 3.8 -19.0°
Drops below altitude 10° 00:28:54 10° 2° (N) 1,973 7.2 -18.7°
Sets 00:31:10 0° 6° (N) 2,884 8.4 -18.6°
